Regional Weather Roundup
Issued by NWS Upton, NY

Current Version | Previous Version | Graphics & Text | Print | Product List | Glossary Off
Versions: 1 2 3 4 5 6 7 8 9 10 11 12 13 14 15 16 17 18 19 20 21 22 23 24 25 26 27 28 29 30 31 32 33 34 35 36 37 38 39 40 41 42 43 44 45 46 47 48 49 50

000
ASUS41 KOKX 182205
RWROKX

REGIONAL WEATHER ROUNDUP
NATIONAL WEATHER SERVICE NEW YORK NY
600 PM EDT THU SEP 18 2014

NOTE: "FAIR" INDICATES FEW OR NO CLOUDS BELOW 12,000 FEET WITH NO
SIGNIFICANT WEATHER AND/OR OBSTRUCTIONS TO VISIBILITY.

NYZ071-072-176-178-NJZ106-104-182300-
NEW YORK CITY METRO AREA


CITY           SKY/WX    TMP DP  RH WIND       PRES   REMARKS
CENTRAL PARK   MOSUNNY   74  41  30 VRB5      30.02R
LAGUARDIA APRT MOSUNNY   75  44  33 NW8       29.98S
KENNEDY INTL   MOSUNNY   75  44  33 NE6       30.00R
NEWARK/LIBERTY MOSUNNY   75  44  33 NW9       29.99R
BRNX BOT. GARD   N/A     73  45  35 N2        30.02R
TETERBORO      SUNNY     75  40  28 NW6       29.98R
$$

NYZ177-179-078>081-182300-
LONG ISLAND NEW YORK

CITY           SKY/WX    TMP DP  RH WIND       PRES   REMARKS
FARMINGDALE    SUNNY     75  44  33 N7        30.00R
ISLIP          PTCLDY    73  44  35 NW5       29.99R
SHIRLEY        CLEAR     73  44  35 N7        30.01R
WESTHAMPTON    CLEAR     73  44  35 NW9       30.01R
MONTAUK POINT    N/A     72  51  47 W5        30.01R
$$

NYZ052-065-067-182300-
HUDSON VALLEY

CITY           SKY/WX    TMP DP  RH WIND       PRES   REMARKS
WHITE PLAINS   MOSUNNY   71  46  40 N5        30.00R
NEWBURGH       MOSUNNY   72  48  43 N6        30.02R
MONTGOMERY     SUNNY     70  47  43 W5        30.00S
POUGHKEEPSIE   PTSUNNY   73  47  39 N3        29.99S
ALBANY         MOSUNNY   59  49  69 N12       30.06R
$$

NJZ001-105-106-008-010-013-015-019>022-104-182300-
NEW JERSEY

CITY           SKY/WX    TMP DP  RH WIND       PRES   REMARKS
NEWARK/LIBERTY MOSUNNY   75  44  33 NW9       29.99R
TETERBORO      SUNNY     75  40  28 NW6       29.98R
CALDWELL       SUNNY     73  44  35 NW6       30.01R
MORRISTOWN     MOSUNNY   72  48  43 NW5       30.00S
SOMERVILLE     NOT AVBL
LINDEN         FAIR      78  48  35 N5        30.01S
SUSSEX         SUNNY     72  45  37 N6        30.02R
ANDOVER          N/A     70  47  43 N5        30.02R
TRENTON        SUNNY     73  48  41 CALM      29.99F
MILLVILLE      CLOUDY    70  57  63 NW3       30.02S
ATLANTIC CITY  CLOUDY    70  54  56 S5        30.01F
WRIGHTSTOWN    PTSUNNY   71  56  60 SW7       29.99S
TOMS RIVER     CLOUDY    70  54  56 CALM      30.02R
BELMAR         CLOUDY    70  52  52 S3        30.01R
$$

PAZ047>061-062-071-182300-
EASTERN PENNSYLVANIA

CITY           SKY/WX    TMP DP  RH WIND       PRES   REMARKS
PHILADELPHIA   MOSUNNY   72  54  53 W8        30.01S
ALLENTOWN      SUNNY     73  40  30 N7        30.01R
SCRANTON       MOSUNNY   69  42  37 N10       30.04R
$$

CTZ002-004>006-009-010-012-RIZ004-006-007-MAZ004-011-015-182300-
SOUTHERN NEW ENGLAND
 IN CT

CITY           SKY/WX    TMP DP  RH WIND       PRES   REMARKS
BRADLEY INTL   CLEAR     71  46  40 NW7       29.99R
HARTFORD       CLEAR     72  43  35 NW6       29.99R
DANBURY        SUNNY     70  45  40 W3        30.02R
WTRBRY/OXFORD  CLEAR     68  46  45 NW5       30.02R
BRIDGEPORT     CLEAR     74  45  35 NW8       29.99R
MERIDEN        CLEAR     72  44  36 NW6       29.99R
NEW HAVEN      CLEAR     74  44  34 NW8       30.00R
CHESTER        FAIR      72  46  40 CALM      30.00R
GROTON         CLEAR     70  53  54 W5        29.98R
WILLIMANTIC    PTCLDY    72  47  40 NW8       30.00R

 IN RI

CITY           SKY/WX    TMP DP  RH WIND       PRES   REMARKS
PROVIDENCE     PTCLDY    73  46  38 N10       29.98R
BLOCK ISLAND   CLEAR     70  54  56 W8        29.99R
WESTERLY       CLEAR     72  45  37 VRB6      29.99R

 IN MA

CITY           SKY/WX    TMP DP  RH WIND       PRES   REMARKS
BOSTON         MOCLDY    67  49  52 E6        29.98R
WORCESTER      CLOUDY    62  51  67 W7        30.02R
WESTFIELD      PTCLDY    71  48  43 NW6       30.00R
PROVINCETOWN   CLEAR     64  52  63 NE5       29.98R
NANTUCKET      CLEAR     65  50  58 E6        29.98R
$$

ANZ330-335-338-340-345-350-353-355-182300-
COASTAL MARINE OBSERVATIONS


STATION/POSITION TIME  SKY/WX   TEMP    WIND        PRES    VSBY  WAVE
                                AIR SEA DIR/SP/G                  HT/PER
                 (UTC)          (F)     (DEG/KT/KT) (MB)    (MI)  (FT/S)
NY HARB ENTRANCE 2200            71 71  180/  8/ 10 1016.0          3/12
4S FIRE IS       2200               71                N/A           3/13
23SW MTP         2200                                 N/A           3/11
HUDSON CANYON    2200            69 74  330/  8/ 12 1016.2          3/11
EXECUTION ROCKS  2200            77 71  320/  8/ 14   N/A
WESTERN LI SOUND 2200            73     130/  2/  2   N/A           0
CENTRAL LI SOUND 2200            71 71  260/  8/ 10   N/A           1
EASTERN LI SOUND 2100            70 69  250/ 10/ 12   N/A
ROBBINS REEF     2200            74     320/  7/ 11 1014.3
$$


>>>>>>>>>>>>>>>>>>>>>>>>>>>> KEY <<<<<<<<<<<<<<<<<<<<<<<<<<<
>                                                          <
>     SKY/WX - SKY CONDITION/PRESENT WEATHER               <
>     TMP    - TEMPERATURE IN FAHRENHEIT                   <
>     DP     - DEWPOINT IN FAHRENHEIT                      <
>     RH     - RELATIVE HUMIDITY IN PERCENT                <
>     WIND   - DIRECTION AND SPEED IN MPH                  <
>     PRES   - MEAN SEA LEVEL PRESSURE IN INCHES OF HG     <
>     WCI    - WIND CHILL INDEX                            <
>     VSB    - VISIBILITY IN MILES                         <
>     HX     - HEAT INDEX                                  <
>     TC     - TEMPERATURE IN CELSIUS                      <
>     VRB    - VARIABLE WIND DIRECTION                     <
>                                                          <
>>>>>>>>>>>>>>>>>>>>>>>>>>>> KEY <<<<<<<<<<<<<<<<<<<<<<<<<<<




USA.gov is the U.S. government's official web portal to all federal, state and local government web resources and services.